Temperature
9 7 7 7 7 7 7 8 8 8 6 6 5 3 2 1 -1 -2 -4 -5 -6 -7 -8 -9 -9 -10 -10 -10 -11 -11 -11 -11 -12 -12 -12 -13 -13 -13 -13 -13 -13 -13 -12 -12
9 6 6 6 6 6 6 6 6 6 6 5 3 2 2 0 -2 -3 -5 -6 -7 -8 -9 -9 -10 -10 -10 -10 -10 -11 -11 -11 -12 -12 -12 -13 -13 -13 -13 -13 -13 -13 -13 -12
10 7 7 9 7 6 6 6 5 5 5 4 3 2 1 -2 -4 -5 -6 -7 -8 -9 -9 -10 -10 -10 -10 -10 -10 -10 -11 -11 -12 -12 -13 -13 -13 -13 -13 -14 -14 -13 -13 -13
8 9 9 8 5 5 5 5 4 4 4 3 2 0 -2 -4 -5 -6 -7 -8 -9 -9 -9 -10 -10 -10 -9 -10 -10 -10 -11 -11 -12 -13 -13 -13 -14 -14 -14 -14 -14 -14 -13 -13
7 10 11 6 4 4 5 5 4 3 3 2 0 0 -1 -5 -6 -7 -8 -9 -9 -9 -9 -9 -9 -9 -9 -10 -10 -10 -11 -12 -12 -13 -13 -14 -14 -14 -14 -14 -14 -14 -13 -13
6 8 10 8 4 3 4 5 3 2 2 1 -0 1 -1 -5 -7 -7 -8 -8 -8 -8 -9 -9 -9 -9 -9 -10 -10 -11 -11 -12 -12 -13 -14 -14 -14 -14 -14 -14 -14 -14 -14 -13
6 7 9 5 3 3 5 6 2 1 0 -1 -1 -2 -5 -6 -7 -7 -7 -7 -8 -8 -8 -9 -9 -9 -9 -10 -11 -11 -11 -12 -12 -13 -14 -14 -14 -14 -14 -14 -14 -14 -14 -13
6 6 8 3 3 5 5 2 1 0 -1 -2 -3 -5 -6 -6 -7 -7 -7 -7 -7 -8 -8 -9 -9 -9 -10 -10 -10 -11 -11 -12 -13 -13 -14 -14 -14 -14 -14 -14 -14 -14 -14 -13
8 8 4 3 3 2 2 1 -0 -1 -2 -3 -4 -5 -6 -7 -7 -7 -7 -7 -8 -8 -8 -8 -9 -9 -10 -10 -10 -11 -11 -12 -13 -14 -14 -14 -14 -14 -14 -14 -14 -14 -13 -13
5 5 2 1 1 1 1 1 -0 -1 -2 -3 -4 -5 -6 -6 -7 -7 -7 -7 -8 -8 -8 -8 -9 -9 -10 -10 -10 -11 -12 -13 -13 -14 -14 -14 -14 -14 -14 -14 -14 -14 -13 -13
5 3 1 0 0 1 1 0 -0 -1 -3 -4 -5 -5 -6 -6 -7 -7 -7 -7 -8 -8 -8 -8 -9 -9 -9 -10 -10 -11 -12 -13 -13 -14 -14 -14 -14 -14 -14 -14 -14 -14 -14 -14
7 4 3 2 1 1 1 0 -1 -2 -3 -4 -5 -5 -6 -6 -7 -7 -7 -7 -7 -8 -8 -8 -9 -9 -9 -10 -10 -11 -12 -13 -13 -14 -14 -14 -14 -14 -15 -15 -14 -14 -14 -14
3 3 3 2 1 1 0 -0 -1 -2 -3 -4 -5 -6 -6 -6 -6 -7 -7 -7 -7 -8 -8 -8 -9 -9 -9 -9 -10 -11 -12 -13 -13 -14 -14 -15 -15 -15 -15 -15 -15 -15 -15 -14
3 3 2 1 1 0 -0 -1 -2 -3 -4 -5 -5 -6 -6 -6 -6 -7 -7 -7 -7 -8 -8 -8 -8 -9 -9 -9 -10 -11 -12 -12 -13 -14 -14 -15 -15 -15 -15 -15 -15 -15 -15 -15
2 3 3 2 1 0 -1 -1 -2 -3 -4 -5 -5 -6 -6 -6 -6 -7 -7 -7 -7 -7 -8 -8 -8 -9 -9 -9 -10 -11 -11 -12 -13 -14 -14 -14 -15 -15 -15 -15 -15 -15 -15 -15
2 2 2 1 1 -0 -1 -2 -3 -3 -4 -5 -5 -6 -6 -6 -6 -7 -7 -7 -7 -7 -8 -8 -8 -8 -9 -9 -10 -10 -11 -11 -12 -13 -14 -14 -15 -15 -15 -15 -15 -15 -15 -15
2 1 1 1 0 -0 -1 -2 -3 -3 -4 -5 -5 -6 -6 -6 -6 -6 -6 -7 -7 -7 -7 -8 -8 -8 -9 -9 -9 -10 -10 -10 -11 -12 -13 -14 -14 -15 -15 -15 -15 -15 -15 -15
4 3 3 2 1 0 -1 -2 -3 -4 -4 -5 -5 -5 -6 -6 -6 -6 -6 -6 -6 -7 -7 -7 -8 -8 -9 -9 -9 -10 -10 -10 -11 -12 -12 -13 -13 -14 -14 -15 -15 -15 -15 -15
2 2 1 1 0 -0 -1 -2 -3 -4 -4 -5 -5 -5 -6 -6 -6 -6 -6 -6 -6 -6 -6 -7 -7 -8 -8 -9 -9 -9 -9 -10 -10 -11 -12 -12 -13 -13 -14 -14 -14 -15 -15 -15
1 1 1 0 -0 -1 -1 -2 -3 -4 -4 -5 -5 -5 -6 -6 -6 -6 -6 -6 -6 -6 -6 -7 -7 -7 -8 -9 -9 -9 -9 -9 -10 -10 -11 -11 -12 -12 -13 -13 -13 -14 -14 -14
1 1 0 0 -0 -1 -2 -3 -3 -4 -4 -5 -5 -5 -6 -6 -6 -6 -6 -6 -6 -6 -6 -7 -7 -7 -8 -9 -9 -9 -9 -9 -9 -10 -10 -11 -11 -11 -12 -12 -12 -13 -13 -13
1 1 0 -0 -1 -1 -2 -3 -4 -4 -5 -5 -5 -5 -6 -6 -6 -6 -6 -6 -6 -6 -6 -7 -7 -7 -8 -8 -8 -9 -9 -9 -9 -10 -10 -10 -10 -10 -11 -11 -11 -12 -12 -13
1 1 0 -0 -1 -2 -2 -3 -4 -4 -5 -5 -5 -5 -6 -6 -6 -5 -5 -6 -6 -6 -6 -6 -7 -7 -7 -8 -8 -8 -9 -9 -9 -10 -10 -10 -10 -10 -10 -10 -10 -11 -11 -11
1 0 -0 -1 -2 -2 -3 -3 -4 -4 -5 -5 -5 -6 -6 -6 -6 -5 -6 -6 -6 -6 -6 -6 -6 -7 -7 -7 -7 -8 -8 -9 -9 -9 -10 -10 -10 -10 -10 -10 -10 -10 -10 -10
1 0 -0 -1 -1 -2 -3 -4 -4 -4 -5 -5 -5 -6 -6 -6 -6 -6 -6 -6 -6 -6 -6 -6 -6 -6 -7 -7 -7 -7 -8 -8 -9 -9 -9 -9 -10 -10 -10 -10 -10 -10 -10 -10
1 0 -0 -1 -1 -2 -3 -3 -4 -4 -5 -5 -5 -6 -6 -6 -6 -6 -6 -6 -6 -6 -6 -6 -6 -6 -6 -7 -7 -7 -8 -8 -8 -9 -9 -9 -9 -9 -10 -10 -10 -10 -10 -10
0 -0 -1 -2 -2 -3 -3 -3 -4 -4 -4 -5 -5 -6 -6 -6 -6 -6 -6 -6 -6 -6 -6 -6 -6 -6 -6 -7 -7 -7 -7 -8 -8 -8 -8 -9 -9 -9 -10 -10 -10 -10 -10 -10
Wind_Speed
6 3 3 5 6 6 7 7 7 7 8 10 8 11 14 14 12 13 15 15 15 15 15 15 15 15 16 16 16 16 16 16 16 17 17 17 17 17 17 17 18 17 17 17
4 1 3 6 7 7 7 6 8 9 9 2 7 10 14 13 11 13 15 15 15 15 15 15 16 16 16 16 17 16 16 16 16 17 17 17 17 17 17 17 17 17 17 17
3 3 6 5 5 8 5 6 5 6 4 6 10 13 14 9 9 13 14 14 14 14 14 15 15 15 16 16 16 16 16 16 16 17 17 17 18 17 17 17 17 17 17 17
4 5 5 2 2 4 5 4 4 5 5 6 10 11 6 4 9 12 12 12 13 13 13 14 14 14 15 15 15 15 16 16 17 17 18 18 18 18 17 16 16 15 16 17
2 5 7 3 5 5 4 3 3 2 4 7 9 10 1 3 6 8 10 11 11 12 13 14 14 14 15 15 15 15 16 17 18 18 18 18 18 18 17 16 16 15 15 16
2 4 5 2 6 5 3 3 5 2 4 7 8 8 6 4 6 8 9 10 11 12 13 13 13 14 14 15 16 16 18 18 19 18 18 18 18 18 16 16 15 15 15 15
5 5 6 5 7 6 3 1 6 2 2 4 4 4 5 5 7 8 9 10 11 12 12 12 13 13 14 15 16 18 18 18 18 18 18 17 17 16 16 15 15 14 14 14
5 5 5 10 9 6 1 6 5 2 0 2 2 3 4 6 7 9 10 11 12 12 13 12 12 13 15 16 17 18 18 18 18 18 16 15 17 16 15 15 14 14 13 13
8 3 3 8 5 4 7 6 4 3 2 1 0 2 4 5 6 8 9 10 11 12 13 13 13 13 15 17 17 18 18 18 18 18 16 16 16 16 15 13 12 12 12 11
6 6 5 7 7 7 6 6 5 5 4 3 2 1 3 4 6 7 9 10 10 12 13 13 14 14 14 16 17 18 18 18 17 17 16 16 14 13 13 13 13 12 11 10
6 3 6 9 9 9 8 8 8 6 5 4 3 2 2 3 5 7 8 9 10 10 12 14 15 15 15 16 17 18 18 17 16 15 16 15 14 13 14 13 14 13 11 10
5 8 8 9 13 12 11 9 8 7 6 5 3 2 1 3 4 6 8 9 10 11 12 14 14 15 15 16 17 17 16 16 14 14 14 13 13 13 16 16 19 18 17 14
4 7 6 11 13 10 9 9 8 7 6 6 4 2 1 2 4 6 8 9 10 11 12 13 13 14 15 16 16 17 16 15 14 13 13 14 14 13 13 14 16 16 17 17
9 10 8 8 9 10 10 10 9 8 7 5 4 2 1 3 5 6 7 9 10 11 11 12 13 14 16 16 16 16 15 15 15 13 13 13 13 13 12 12 12 11 12 15
9 4 9 11 12 11 11 10 9 7 6 5 3 1 1 3 5 7 8 9 9 9 10 11 13 14 15 16 16 15 13 12 12 12 12 12 12 12 11 12 11 10 9 10
10 10 13 14 13 12 11 10 8 8 7 5 3 2 2 4 6 7 7 7 8 9 10 11 12 14 16 15 15 13 11 15 15 12 11 12 11 11 11 11 10 9 9 9
15 12 11 12 12 12 11 9 8 8 7 6 4 2 3 4 4 6 7 7 7 8 8 10 12 14 15 14 13 11 10 11 15 12 11 11 11 11 10 10 10 9 8 10
16 14 14 14 13 12 11 9 9 9 7 6 4 2 2 3 5 7 9 9 8 7 8 11 13 15 14 13 12 10 9 9 10 10 10 10 10 10 9 9 10 9 8 8
12 12 11 11 11 12 11 10 10 8 7 6 5 3 2 3 5 6 7 7 8 8 10 13 18 14 12 14 15 8 9 10 10 10 10 12 11 9 9 9 9 8 8 7
11 11 11 11 10 9 11 10 10 9 7 6 5 3 2 3 4 6 6 5 4 6 10 13 13 11 12 13 14 8 9 10 11 10 10 10 10 9 9 8 8 8 8 7
14 13 12 11 10 10 11 12 11 10 8 6 5 3 2 4 4 5 5 5 5 8 11 12 10 10 12 13 12 8 9 10 10 11 11 11 10 10 9 9 8 8 8 8
13 13 13 12 12 11 10 10 9 9 8 6 5 3 3 3 4 4 3 4 7 12 10 7 9 14 17 14 8 8 9 10 10 11 11 12 11 11 10 10 9 9 8 8
13 12 13 12 12 11 10 9 9 9 8 7 6 5 3 3 3 3 4 5 7 11 8 7 13 17 17 10 7 9 10 11 11 12 12 12 12 12 11 11 10 9 9 9
13 12 11 11 11 11 11 10 8 7 6 5 5 4 3 3 2 3 4 8 10 10 6 9 14 15 13 8 7 8 9 10 11 12 12 13 13 13 13 12 11 10 10 11
12 12 12 13 12 10 10 10 9 7 7 5 5 6 5 4 3 4 5 6 8 8 6 8 12 13 9 7 8 8 9 9 11 12 12 13 14 14 14 14 13 12 11 11
11 11 11 11 9 9 9 9 8 7 7 6 5 5 4 3 4 4 4 4 6 6 5 6 8 9 8 8 8 9 9 10 11 11 13 13 15 15 15 16 18 15 14 13
10 9 8 8 7 8 9 9 9 9 9 7 6 5 4 3 3 2 2 2 3 4 4 5 6 7 7 8 9 9 10 10 11 12 13 14 14 14 15 18 16 17 17 17
Wind_Direction
273 294 269 265 251 226 227 246 264 291 299 320 342 338 336 341 347 347 348 346 345 344 342 340 339 337 335 333 333 332 331 331 331 330 330 329 330 332 333 333 332 330 329 330
270 224 280 268 247 233 234 239 252 279 297 360 333 331 335 345 348 345 344 344 343 342 340 338 336 334 331 330 329 328 326 325 326 327 328 328 328 329 331 332 332 331 331 331
280 312 296 272 228 204 207 213 240 278 314 331 325 334 337 345 347 344 343 342 341 339 336 333 332 329 327 324 323 322 321 321 322 324 325 326 326 327 329 330 330 330 330 331
299 316 290 82 92 191 210 229 233 260 295 320 324 325 337 10 348 342 341 339 336 334 330 328 326 324 320 318 318 319 319 320 323 324 323 323 324 325 326 327 327 327 327 329
273 287 272 157 181 182 214 240 192 236 306 325 329 310 231 43 354 340 339 336 333 329 326 324 325 324 319 318 320 321 323 324 324 324 322 323 323 323 324 325 324 325 325 327
202 269 279 131 150 153 191 236 159 204 312 327 331 330 359 24 345 345 344 340 334 328 326 326 327 325 321 322 325 327 327 324 323 324 324 323 321 322 323 322 321 324 323 325
221 248 275 136 146 161 225 40 145 185 311 323 326 320 338 347 350 351 345 340 334 329 328 329 328 324 322 325 329 328 325 324 325 326 326 322 322 323 322 322 322 322 323 326
197 229 260 147 158 194 128 120 146 160 232 307 314 331 344 351 351 348 342 339 336 330 327 328 327 326 326 330 330 327 326 327 328 329 328 325 326 326 326 325 324 324 324 327
208 233 93 166 166 131 132 144 148 152 142 139 343 359 356 351 348 343 339 335 333 328 324 328 332 334 331 331 330 329 329 331 331 331 331 331 331 331 331 330 327 324 324 328
247 240 190 173 148 141 139 134 130 129 130 126 116 56 7 352 345 340 336 332 329 327 327 329 334 337 335 332 332 331 332 334 335 335 336 338 339 339 338 336 333 332 336 338
239 196 158 178 172 154 136 130 130 124 120 119 121 91 19 348 339 333 327 327 326 325 323 329 334 336 338 337 336 335 335 338 338 339 341 344 345 345 344 343 343 348 349 346
218 181 173 176 166 155 149 149 147 142 133 117 109 104 23 341 328 321 320 322 322 324 329 332 334 336 339 341 340 338 339 341 341 344 347 347 344 343 347 349 351 356 357 359
123 132 124 132 142 147 143 142 143 143 141 139 125 107 12 326 316 315 316 323 325 326 328 330 334 337 342 343 340 341 342 341 343 346 348 346 346 346 346 349 356 1 3 4
138 125 128 145 149 144 136 132 128 124 124 130 134 126 340 317 314 319 325 324 322 323 328 333 336 340 343 341 340 342 343 345 348 347 347 347 348 349 350 350 353 359 4 7
161 143 143 139 134 133 134 139 142 143 146 145 147 159 304 314 314 316 319 324 324 329 336 338 338 339 342 341 341 342 345 348 348 348 349 349 351 353 354 355 356 357 0 3
144 125 134 142 148 152 156 163 165 164 164 167 177 207 285 296 298 307 325 334 330 329 330 332 335 336 339 342 341 341 344 347 351 349 351 352 354 356 357 357 357 359 360 355
145 151 156 161 167 171 175 176 171 163 164 172 181 213 284 305 315 333 337 334 320 311 320 333 333 332 339 343 340 340 340 340 347 349 353 353 355 355 354 355 356 357 358 359
173 168 170 171 172 171 170 165 158 156 162 168 168 200 264 322 333 327 326 325 326 334 349 344 332 337 341 340 342 339 336 337 341 345 348 351 351 350 349 349 351 353 351 351
160 157 158 160 160 160 159 158 155 152 153 160 174 195 250 296 309 313 317 324 336 343 339 331 336 341 338 342 346 335 334 335 338 341 343 343 345 344 343 343 343 342 341 340
145 143 139 136 137 144 151 151 151 153 160 165 175 199 243 291 310 313 312 306 326 317 310 327 338 336 335 342 345 336 334 335 336 337 338 339 337 336 334 332 330 328 327 325
148 145 143 143 143 148 153 155 158 161 164 173 184 203 252 293 308 313 314 335 344 330 329 340 339 333 342 347 342 338 338 337 336 336 335 334 331 328 324 321 317 313 311 309
155 154 154 152 150 152 154 157 159 159 164 176 190 210 251 291 314 312 277 290 320 329 338 339 334 342 351 349 341 339 339 338 337 336 336 335 332 327 321 316 307 301 297 294
161 160 160 161 158 152 151 158 165 168 175 184 193 206 232 279 298 307 320 323 326 331 342 336 340 348 353 349 341 340 341 341 339 338 338 336 334 331 325 319 311 299 291 286
161 159 156 147 143 150 164 173 173 175 180 191 204 217 237 267 276 262 290 312 326 333 338 339 348 353 354 350 343 342 342 341 340 340 339 337 336 335 333 328 320 313 302 291
158 151 150 155 165 176 174 165 167 175 186 203 216 221 226 238 260 292 304 311 322 334 336 341 351 355 354 346 344 341 340 340 342 342 340 339 339 338 338 338 336 327 319 309
161 167 172 180 177 169 165 169 177 184 187 195 204 209 215 228 251 272 290 307 322 337 343 341 345 348 348 345 342 340 338 338 340 341 340 339 338 340 340 342 341 341 336 329
156 156 159 168 174 174 172 177 182 185 189 191 192 194 201 214 234 259 287 313 330 338 343 346 346 345 344 343 341 340 339 340 341 342 342 340 339 338 340 342 344 344 345 344
Height
1602 1607 1608 1606 1606 1608 1608 1603 1602 1598 1604 1605 1609 1610 1609 1606 1604 1601 1598 1594 1589 1584 1578 1572 1566 1560 1553 1547 1540 1533 1527 1520 1514 1508 1501 1495 1489 1483 1477 1470 1464 1459 1453 1448
1601 1608 1608 1606 1605 1607 1607 1607 1606 1605 1605 1609 1610 1609 1607 1605 1603 1600 1597 1592 1587 1582 1576 1570 1564 1558 1551 1544 1538 1531 1524 1518 1512 1505 1499 1492 1486 1480 1474 1468 1462 1457 1451 1446
1595 1604 1604 1593 1598 1603 1604 1605 1606 1604 1607 1609 1608 1607 1605 1604 1602 1599 1595 1591 1586 1580 1575 1568 1562 1556 1549 1542 1536 1529 1522 1516 1509 1503 1496 1490 1484 1478 1472 1466 1460 1454 1449 1444
1601 1597 1595 1594 1604 1603 1604 1604 1606 1607 1608 1608 1608 1606 1604 1602 1601 1597 1593 1588 1583 1578 1572 1567 1560 1554 1548 1541 1534 1527 1520 1513 1507 1500 1494 1487 1481 1475 1470 1464 1458 1453 1448 1443
1605 1592 1582 1600 1602 1603 1603 1602 1606 1607 1607 1607 1606 1603 1601 1600 1598 1595 1591 1586 1581 1576 1570 1565 1558 1552 1545 1539 1532 1525 1518 1512 1505 1498 1491 1484 1478 1473 1467 1461 1456 1451 1446 1441
1608 1597 1585 1590 1600 1601 1604 1599 1605 1606 1606 1606 1604 1600 1601 1599 1596 1593 1589 1584 1580 1574 1569 1563 1557 1550 1544 1537 1530 1524 1517 1509 1502 1495 1489 1482 1476 1470 1464 1459 1454 1449 1444 1440
1603 1598 1581 1595 1599 1602 1599 1597 1604 1604 1604 1604 1603 1603 1601 1597 1594 1591 1587 1583 1578 1573 1567 1561 1555 1549 1542 1536 1529 1522 1515 1507 1500 1493 1486 1480 1474 1468 1462 1457 1452 1448 1443 1439
1600 1597 1588 1594 1597 1597 1596 1599 1601 1602 1602 1601 1600 1599 1597 1595 1592 1589 1585 1581 1577 1572 1566 1560 1554 1547 1541 1535 1528 1520 1513 1505 1498 1491 1485 1478 1472 1466 1461 1456 1451 1446 1442 1438
1588 1585 1588 1591 1592 1594 1596 1598 1599 1600 1599 1598 1597 1596 1595 1593 1590 1587 1584 1580 1575 1571 1565 1559 1553 1546 1540 1533 1526 1518 1511 1503 1496 1490 1484 1477 1471 1465 1459 1455 1450 1445 1441 1437
1586 1584 1587 1589 1591 1593 1595 1596 1597 1597 1596 1595 1595 1594 1593 1591 1589 1586 1583 1579 1574 1569 1564 1558 1552 1546 1540 1532 1525 1517 1509 1502 1495 1489 1483 1477 1471 1465 1459 1454 1449 1445 1440 1437
1581 1583 1586 1587 1589 1591 1593 1594 1595 1594 1594 1593 1593 1592 1591 1590 1588 1585 1582 1578 1573 1568 1562 1557 1551 1545 1539 1532 1524 1516 1509 1501 1495 1489 1483 1476 1471 1465 1460 1455 1451 1446 1441 1438
1571 1574 1578 1582 1585 1589 1591 1592 1592 1592 1592 1592 1591 1591 1590 1588 1586 1584 1581 1577 1572 1567 1562 1557 1551 1545 1538 1531 1524 1516 1508 1501 1495 1489 1482 1476 1471 1465 1461 1456 1451 1446 1442 1439
1571 1573 1575 1578 1583 1587 1589 1590 1590 1590 1590 1590 1590 1589 1588 1587 1585 1583 1580 1576 1571 1566 1561 1556 1550 1544 1538 1531 1524 1517 1510 1502 1496 1490 1483 1477 1471 1466 1460 1456 1452 1447 1443 1440
1569 1572 1575 1578 1581 1585 1586 1587 1588 1588 1588 1588 1588 1588 1587 1586 1584 1582 1579 1575 1570 1566 1561 1556 1550 1545 1538 1531 1524 1518 1511 1504 1498 1491 1485 1479 1473 1468 1462 1457 1453 1449 1445 1442
1568 1571 1573 1576 1580 1582 1584 1585 1585 1586 1586 1587 1587 1587 1586 1585 1583 1581 1578 1574 1570 1566 1561 1556 1550 1544 1538 1532 1525 1519 1512 1505 1499 1493 1487 1481 1475 1470 1465 1460 1456 1452 1448 1445
1565 1569 1572 1575 1578 1580 1581 1582 1583 1584 1585 1585 1586 1586 1585 1584 1582 1580 1577 1573 1569 1565 1560 1555 1549 1544 1538 1532 1526 1520 1514 1507 1501 1495 1488 1482 1477 1471 1467 1462 1458 1454 1451 1448
1561 1565 1569 1572 1575 1577 1579 1580 1581 1582 1583 1584 1584 1585 1584 1583 1582 1579 1577 1573 1569 1564 1560 1555 1550 1545 1539 1534 1527 1521 1515 1509 1502 1496 1490 1484 1479 1473 1469 1464 1461 1457 1453 1450
1559 1563 1566 1570 1572 1574 1576 1577 1579 1580 1581 1582 1583 1583 1583 1582 1581 1579 1576 1573 1569 1565 1561 1556 1550 1545 1540 1534 1528 1523 1517 1510 1504 1498 1492 1486 1481 1476 1471 1466 1462 1459 1455 1452
1558 1562 1565 1568 1570 1572 1573 1575 1576 1578 1579 1581 1582 1582 1582 1581 1580 1578 1575 1572 1568 1565 1560 1555 1550 1545 1540 1535 1529 1524 1518 1512 1506 1500 1494 1488 1482 1477 1472 1468 1463 1459 1456 1452
1556 1560 1563 1566 1568 1569 1571 1573 1574 1576 1577 1579 1580 1580 1581 1580 1579 1577 1574 1571 1567 1563 1559 1554 1550 1545 1540 1535 1530 1525 1520 1514 1508 1502 1496 1490 1484 1478 1473 1468 1464 1459 1455 1452
1553 1557 1560 1563 1565 1567 1569 1570 1572 1574 1576 1577 1578 1579 1579 1579 1578 1576 1574 1571 1567 1563 1559 1555 1550 1545 1540 1535 1531 1526 1521 1515 1509 1503 1497 1491 1485 1479 1474 1468 1463 1459 1454 1451
1551 1555 1558 1560 1562 1564 1566 1568 1570 1572 1574 1575 1576 1577 1578 1577 1577 1575 1572 1570 1566 1562 1558 1555 1550 1545 1541 1536 1532 1527 1521 1516 1510 1504 1498 1492 1486 1480 1474 1469 1463 1458 1453 1448
1549 1552 1555 1558 1560 1562 1563 1565 1567 1569 1571 1573 1575 1575 1576 1576 1575 1574 1571 1569 1565 1562 1558 1554 1550 1546 1542 1537 1532 1527 1522 1516 1511 1505 1499 1493 1487 1481 1475 1469 1463 1457 1451 1446
1546 1549 1552 1555 1557 1558 1560 1562 1565 1567 1569 1571 1572 1573 1574 1574 1573 1572 1570 1567 1565 1561 1558 1555 1551 1547 1542 1538 1533 1528 1522 1517 1511 1506 1500 1495 1489 1482 1476 1470 1464 1457 1451 1445
1543 1546 1549 1551 1553 1555 1557 1559 1561 1563 1566 1568 1569 1571 1571 1572 1572 1570 1569 1567 1564 1561 1558 1555 1551 1547 1543 1538 1534 1529 1523 1518 1513 1507 1502 1496 1489 1483 1477 1471 1465 1458 1452 1445
1540 1543 1545 1548 1550 1552 1553 1555 1557 1560 1562 1564 1566 1568 1569 1569 1569 1568 1567 1566 1564 1561 1558 1555 1552 1548 1544 1539 1535 1530 1525 1520 1514 1509 1503 1497 1491 1484 1478 1472 1466 1459 1453 1446
1536 1539 1541 1543 1545 1547 1549 1551 1554 1556 1558 1561 1563 1565 1566 1567 1567 1566 1566 1564 1563 1561 1558 1556 1552 1549 1545 1541 1536 1531 1526 1521 1516 1510 1505 1499 1492 1486 1480 1474 1467 1461 1454 1447